Epoch = 2011 Dec. 25.0 TT T = 2011 Dec. 7.20483 TT Peri. = 32.32930 e = 0.6325168 Node = 40.63547 2000.0 q = 2.0513528 AU Incl. = 10.53802 a = 5.5821671 AU n = 0.07473083 P = 13.19 years
m1 = -139 + 5 log d + 500 log r(t + 8) [ ,0] ( - 2011 Dec. 7) m1 = 6.6 + 5 log d + 30 log r(t + 100) [0, ] (2011 Dec. 7 - )